Frederick, MD

6:34 AM EST on December 13, 2019 (GMT -0500)
Frederick Municipal

Weather History for KFDK - August, 2019

Change the Weather History Date:

Saturday, August 17, 2019

  Actual Average (KHGR) Record (KHGR)
Temperature  
Mean Temperature 81 °F -  
Max Temperature 91 °F 81 °F 95 °F (1999)
Min Temperature 71 °F 63 °F 56 °F (2013)
Cooling Degree Days 16    
Growing Degree Days 31 (Base 50)    
Moisture  
Dew Point 71 °F    
Average Humidity 85    
Maximum Humidity 100    
Minimum Humidity 43    
Precipitation  
Precipitation 0.00 in - - ()
Sea Level Pressure  
Sea Level Pressure 30.01 in    
Wind  
Wind Speed 1 mph (SSE)    
Max Wind Speed 7 mph    
Max Gust Speed -    
Visibility 6 miles    
Events      
Averages and records for this station are not official NWS values.
T = Trace of Precipitation, MM = Missing Value Source: NWS Daily Summary

Daily Weather History Graph

Daily Weather History Graph

Search for Another Location

Airport or City:

Astronomy

Aug. 17, 2019 Rise Set
Actual Time 6:23 AM EDT 8:02 PM EDT
Civil Twilight 5:55 AM EDT 8:31 PM EDT
Nautical Twilight 5:20 AM EDT 9:05 PM EDT
Astronomical Twilight 4:43 AM EDT 9:42 PM EDT
Moon 9:30 PM EDT (8/17) 8:10 AM EDT (8/17)
Length of Visible Light 14h 36m
Length of Day
13h 38m
Waning Gibbous, 96% of the Moon is Illuminated
Aug 17
Waning Gibbous
Aug 23
Last Quarter
Aug 30
New
Sep 5
First Quarter
Sep 14
Full

Hourly Weather History & Observations

Time (EDT) Temp. Heat Index Dew Point Humidity Pressure Visibility Wind Dir Wind Speed Gust Speed Precip Events Conditions
12:05 AM 73.4 °F - 73.4 °F 100% 30.02 in 4.0 mi Calm Calm - N/A   Clear
12:25 AM 73.4 °F - 71.6 °F 94% 30.02 in 5.0 mi Calm Calm - N/A   Clear
12:45 AM 73.4 °F - 71.6 °F 94% 30.02 in 3.0 mi Calm Calm - N/A   Clear
1:05 AM 73.4 °F - 71.6 °F 94% 30.02 in 1.0 mi Calm Calm - N/A   Mostly Cloudy
1:25 AM 73.4 °F - 71.6 °F 94% 30.02 in 4.0 mi Calm Calm - N/A   Scattered Clouds
1:45 AM 71.6 °F - 71.6 °F 100% 30.02 in 4.0 mi Calm Calm - N/A   Clear
2:05 AM 71.6 °F - 71.6 °F 100% 30.02 in 2.5 mi Calm Calm - N/A   Scattered Clouds
2:25 AM 71.6 °F - 71.6 °F 100% 30.03 in 4.0 mi Calm Calm - N/A   Scattered Clouds
2:45 AM 71.6 °F - 71.6 °F 100% 30.02 in 3.0 mi Calm Calm - N/A   Scattered Clouds
3:05 AM 71.6 °F - 71.6 °F 100% 30.02 in 2.5 mi Calm Calm - N/A   Scattered Clouds
3:25 AM 71.6 °F - 71.6 °F 100% 30.02 in 5.0 mi Calm Calm - N/A   Mostly Cloudy
3:45 AM 71.6 °F - 71.6 °F 100% 30.02 in 5.0 mi Calm Calm - N/A   Mostly Cloudy
4:05 AM 71.6 °F - 71.6 °F 100% 30.02 in 2.0 mi East 3.5 mph - N/A   Overcast
4:25 AM 71.6 °F - 69.8 °F 94% 30.02 in 3.0 mi Calm Calm - N/A   Mostly Cloudy
4:45 AM 71.6 °F - 69.8 °F 94% 30.02 in 4.0 mi Calm Calm - N/A   Scattered Clouds
5:05 AM 71.6 °F - 69.8 °F 94% 30.01 in 1.2 mi Calm Calm - N/A   Mostly Cloudy
5:25 AM 71.6 °F - 69.8 °F 94% 30.02 in 3.0 mi Calm Calm - N/A   Overcast
5:45 AM 71.6 °F - 69.8 °F 94% 30.02 in 5.0 mi Calm Calm - N/A   Overcast
6:05 AM 71.6 °F - 69.8 °F 94% 30.02 in 5.0 mi Calm Calm - N/A   Overcast
6:25 AM 71.6 °F - 69.8 °F 94% 30.02 in 5.0 mi Calm Calm - N/A   Overcast
6:50 AM 71.6 °F - 71.6 °F 100% 30.02 in 7.0 mi Calm Calm - N/A   Overcast
7:00 AM 73.4 °F - 71.6 °F 94% 30.02 in 5.0 mi Calm Calm - N/A   Overcast
7:05 AM 71.6 °F - 71.6 °F 100% 30.02 in 5.0 mi Calm Calm - N/A   Overcast
7:47 AM 73.4 °F - 73.4 °F 100% 30.03 in 3.0 mi Calm Calm - N/A   Overcast
7:50 AM 73.4 °F - 73.4 °F 100% 30.03 in 2.0 mi Calm Calm - N/A   Overcast
8:47 AM 75.2 °F - 73.4 °F 94% 30.04 in 2.0 mi Calm Calm - N/A   Overcast
9:50 AM 78.8 °F - 75.2 °F 89% 30.04 in 4.0 mi Calm Calm - N/A   Mostly Cloudy
10:28 AM 80.6 °F 86.2 °F 75.2 °F 84% 30.05 in 7.0 mi Calm Calm - N/A   Mostly Cloudy
11:55 AM 84.2 °F 90.9 °F 73.4 °F 70% 30.04 in 9.0 mi SW 4.6 mph - N/A   Mostly Cloudy
1:47 PM 87.8 °F 92.6 °F 69.8 °F 55% 30.02 in 10.0 mi South 5.8 mph - N/A   Mostly Cloudy
2:47 PM 89.6 °F 96.2 °F 71.6 °F 55% 30.01 in 10.0 mi SSW 4.6 mph - N/A   Mostly Cloudy
3:47 PM 91.4 °F 96.8 °F 69.8 °F 49% 29.98 in 10.0 mi South 3.5 mph - N/A   Scattered Clouds
4:47 PM 91.4 °F 94.0 °F 66.2 °F 43% 29.98 in 10.0 mi SW 3.5 mph - N/A   Clear
5:47 PM 91.4 °F 94.0 °F 66.2 °F 43% 29.97 in 10.0 mi South 3.5 mph - N/A   Clear
6:47 PM 89.6 °F 94.7 °F 69.8 °F 52% 29.98 in 10.0 mi South 3.5 mph - N/A   Scattered Clouds
7:47 PM 84.2 °F 89.6 °F 71.6 °F 66% 29.99 in 10.0 mi Calm Calm - N/A   Clear
8:47 PM 82.4 °F 88.2 °F 73.4 °F 74% 30.00 in 10.0 mi South 6.9 mph - N/A   Clear
9:30 PM 80.6 °F 83.9 °F 69.8 °F 70% 30.00 in 10.0 mi SE 3.5 mph - N/A   Clear
9:50 PM 78.8 °F - 71.6 °F 78% 30.00 in 10.0 mi ESE 3.5 mph - N/A   Clear
10:10 PM 78.8 °F - 69.8 °F 74% 30.01 in 10.0 mi SE 3.5 mph - N/A   Clear
10:30 PM 77.0 °F - 69.8 °F 78% 30.02 in 10.0 mi SE 3.5 mph - N/A   Clear
10:50 PM 77.0 °F - 69.8 °F 78% 30.01 in 10.0 mi Calm Calm - N/A   Clear
11:10 PM 77.0 °F - 71.6 °F 83% 30.00 in 10.0 mi Calm Calm - N/A   Clear
11:30 PM 77.0 °F - 69.8 °F 78% 30.00 in 10.0 mi SE 3.5 mph - N/A   Clear
11:50 PM 75.2 °F - 69.8 °F 83% 30.00 in 10.0 mi SE 3.5 mph - N/A   Clear